TimeCST,TemperatureF,Dew PointF,Humidity,Sea Level PressureIn,VisibilityMPH,Wind Direction,Wind SpeedMPH,Gust SpeedMPH,PrecipitationIn,Events,Conditions,WindDirDegrees,DateUTC
12:52 AM,42.1,35.1,76,30.15,10.0,SSE,9.2,-,N/A,,Scattered Clouds,160,2013-11-11 06:52:00
1:52 AM,42.1,35.1,76,30.15,10.0,SE,5.8,-,N/A,,Scattered Clouds,140,2013-11-11 07:52:00
2:52 AM,41.0,35.1,79,30.12,10.0,SSE,8.1,-,N/A,,Scattered Clouds,160,2013-11-11 08:52:00
3:52 AM,42.1,36.0,79,30.12,10.0,SSE,6.9,-,N/A,,Scattered Clouds,160,2013-11-11 09:52:00
4:32 AM,41.0,37.4,87,30.13,10.0,North,5.8,-,N/A,,Mostly Cloudy,10,2013-11-11 10:32:00
4:52 AM,42.1,37.9,85,30.14,10.0,Calm,Calm,-,N/A,,Mostly Cloudy,0,2013-11-11 10:52:00
5:02 AM,42.8,37.4,81,30.13,10.0,Calm,Calm,-,N/A,,Scattered Clouds,0,2013-11-11 11:02:00
5:52 AM,37.9,35.1,89,30.16,10.0,NNW,3.5,-,N/A,,Mostly Cloudy,330,2013-11-11 11:52:00
6:52 AM,39.9,36.0,86,30.20,10.0,North,11.5,-,N/A,,Mostly Cloudy,350,2013-11-11 12:52:00
6:59 AM,39.2,35.6,87,30.20,10.0,North,17.3,23.0,N/A,,Mostly Cloudy,360,2013-11-11 12:59:00
7:19 AM,39.2,32.0,75,30.23,10.0,NNE,18.4,29.9,N/A,,Mostly Cloudy,20,2013-11-11 13:19:00
7:52 AM,37.9,30.9,76,30.29,10.0,North,19.6,-,N/A,,Mostly Cloudy,10,2013-11-11 13:52:00
8:34 AM,37.4,30.2,75,30.30,10.0,North,18.4,-,N/A,,Overcast,10,2013-11-11 14:34:00
8:52 AM,36.0,30.0,79,30.34,10.0,North,19.6,-,N/A,,Overcast,10,2013-11-11 14:52:00
9:52 AM,35.1,27.0,72,30.38,10.0,North,21.9,-,N/A,,Overcast,10,2013-11-11 15:52:00
10:52 AM,36.0,24.1,62,30.41,10.0,North,20.7,29.9,N/A,,Overcast,360,2013-11-11 16:52:00
11:39 AM,33.8,21.2,60,30.41,10.0,NNE,20.7,28.8,N/A,,Overcast,20,2013-11-11 17:39:00
11:52 AM,33.1,21.9,64,30.45,10.0,North,23.0,32.2,N/A,,Overcast,360,2013-11-11 17:52:00
12:47 PM,33.8,21.2,60,30.43,10.0,North,19.6,27.6,N/A,,Mostly Cloudy,360,2013-11-11 18:47:00
12:52 PM,34.0,21.9,61,30.46,10.0,North,20.7,28.8,N/A,,Mostly Cloudy,360,2013-11-11 18:52:00
1:52 PM,30.9,18.0,59,30.50,10.0,North,21.9,34.5,N/A,,Mostly Cloudy,360,2013-11-11 19:52:00
2:30 PM,26.6,19.4,74,30.49,6.0,NNW,24.2,31.1,0.00,Snow,Light Snow,340,2013-11-11 20:30:00
2:52 PM,26.1,19.0,75,30.53,6.0,North,19.6,28.8,0.00,Snow,Light Snow,350,2013-11-11 20:52:00
3:13 PM,26.6,17.6,69,30.51,10.0,North,18.4,-,0.00,,Overcast,350,2013-11-11 21:13:00
3:52 PM,27.0,14.0,58,30.56,10.0,North,20.7,-,0.00,,Mostly Cloudy,350,2013-11-11 21:52:00
4:52 PM,27.0,12.0,53,30.58,10.0,North,19.6,-,N/A,,Overcast,350,2013-11-11 22:52:00
5:52 PM,26.1,10.9,53,30.62,10.0,North,21.9,-,N/A,,Overcast,350,2013-11-11 23:52:00
6:52 PM,26.1,10.9,53,30.66,10.0,North,17.3,26.5,N/A,,Overcast,360,2013-11-12 00:52:00
7:52 PM,25.0,12.9,60,30.69,10.0,North,11.5,-,N/A,,Overcast,350,2013-11-12 01:52:00
8:52 PM,23.0,10.9,60,30.73,10.0,North,17.3,23.0,N/A,,Mostly Cloudy,360,2013-11-12 02:52:00
9:52 PM,21.0,10.9,65,30.78,10.0,North,11.5,-,N/A,,Scattered Clouds,360,2013-11-12 03:52:00
10:52 PM,19.0,10.9,71,30.81,10.0,North,10.4,-,N/A,,Scattered Clouds,350,2013-11-12 04:52:00
11:52 PM,18.0,10.9,74,30.83,10.0,North,9.2,-,N/A,,Partly Cloudy,350,2013-11-12 05:52:00